THOR AGENA D R/B, 815

Orbit data source: Space-Track

THOR AGENA D R/B, 815 is space debris in SSO originally from a launch on Thu, 18 Jun 1964 UTC launched from the Air Force Western Test Range (AFWTR). Debris objects in space refer to the collection of defunct objects orbiting the Earth. Examples of debris include non-operational satellites, rocket bodies, and fragments generated from explosions, collisions, or faulty payload assembly.

Loading next visibility...
Identifier
815, 1964-031C
Orbit
SSO
Country
Flag of USUS
Related business
Manufacturer
LMSC
Mission
Spacecraft
Bus & Motor
AGENA D, Unknown motor
Mass
600 kg wet, 600 kg dry
Launch date (UTC)
1964-06-18 (62 years ago)
Launch vehicle
Unknown
Launch site
Air Force Western Test Range (AFWTR)
Object type
Payload
Rocket body
Debris
Shape & HBR
Unknown
Radar Cross Section
Large (>1 m²)

Expand to show TLE details & history
Last TLE update: 13 hours ago

TLE from 13 hours ago
0 THOR AGENA D R/B
1   815U 64031C   26125.39297161  .00000181  00000-0  93731-4 0  9999
2   815  99.8197  70.3951 0012367  60.7133 299.5279 14.28490732214890
Epoch: 2026-05-05T09:25Z
TLE epoch observation values (Epoch: 2026-05-05T09:25:52.747Z)
Latitude
0.00001°
Longitude
65.65686°
Altitude
795.303 km
Speed
7.458 km/s
True Right ascension
04h 41m 34s
True Declination
0° 00' 00"
Sunlit
Object was in daylight at epoch
Visualization orbit readout
Latitude
Unknown
Longitude
Unknown
Altitude
Unknown
Speed
Unknown
Apparent Right ascension
Unknown
Apparent Declination
Unknown
Sunlit
N/A
Visualization observer readout
Local Sidereal Time
05:58:32
Azimuth
Unknown
Elevation
Unknown
Doppler factor
Unknown
Orbital elements
Apogee altitude
802.854 km
Perigee altitude
785.114 km
Semi-major axis
7,172.121 km
Eccentricity
0.00124
Inclination
99.8197°
RAAN
70.3951°
Arg. of periapsis
60.7133°
True anomaly
299.4045°
Mean anomaly
299.5279°
Eccentric anomaly
299.46621°
Mean motion
3.57332 °/min
Orbital period
100.75 mins
BSTAR
0.000093731
Loading maneuver chart data...
Computing Atmospheric mass density...
Loading historical data...
Loading historical data...
Loading historical data...
Loading historical data...
Loading historical data...
Loading historical data...
Loading historical data...
Other satellites on launch #31 in the year 1964 (1964-06-18 UTC)

Documentation

Showing up to 5 results
|